Wind_Speed
3 3 3 5 8 8 7 7 8 7 5 5 5 3 6 7 7 8 8 10 10 9 11 15 15 12 12 15 15 12 9 7 10 15 15 12 12 11 9 9 10 13 13 17 24 29 31 31 32 32 32 31 32 34 36 36 36 38 39 38 37 37 36 35 33 31 27 25 27 30 30 31 31 30 29 27 27 25 23 22 23 22 20 20 21 20
0 3 8 10 9 7 5 5 6 7 6 6 6 5 6 7 8 9 9 10 10 11 11 11 13 14 13 13 15 14 12 11 10 11 13 14 13 12 12 11 10 9 8 11 16 22 27 27 28 31 31 32 34 34 37 38 38 38 38 37 36 36 37 36 34 33 29 26 28 29 31 31 31 31 30 28 27 24 23 24 24 23 20 20 22 21
2 5 11 9 5 4 5 6 7 7 6 6 6 5 6 6 7 9 11 12 10 9 10 10 9 12 13 12 12 14 15 16 13 11 11 12 13 12 12 12 9 8 8 10 12 16 22 25 27 29 30 34 36 37 38 38 37 36 35 35 37 38 38 37 36 34 28 25 26 27 29 30 30 29 28 27 26 23 23 25 25 23 21 21 22 22
4 7 8 5 3 5 7 8 8 6 5 6 5 5 7 7 6 7 9 12 12 9 9 11 9 8 10 11 12 14 15 16 16 14 11 11 12 12 12 12 9 10 11 12 13 14 18 21 23 26 29 32 33 34 35 35 35 35 35 37 38 38 38 37 36 33 27 24 24 24 26 28 27 26 26 25 25 24 23 26 27 25 23 22 22 22
9 9 4 3 5 7 8 8 7 5 4 6 7 7 7 8 10 8 8 11 12 11 10 9 8 7 9 12 13 12 13 15 16 17 15 11 10 11 10 10 9 9 12 14 15 15 14 17 22 27 30 32 33 35 36 37 37 37 38 39 38 37 37 37 35 31 27 25 24 24 25 26 25 24 24 25 26 26 25 27 28 26 25 23 21 22
11 10 5 6 7 6 8 7 6 5 4 6 8 9 10 11 12 11 12 11 7 9 9 8 7 7 8 12 12 9 11 15 14 17 19 15 11 10 9 9 8 9 11 14 17 17 15 18 22 25 28 31 33 36 37 38 38 39 39 38 36 36 35 35 33 31 29 27 26 27 28 27 26 25 26 27 28 27 27 29 29 27 25 23 21 21
6 6 6 7 8 7 8 6 6 6 4 6 6 8 11 12 13 13 14 12 5 6 9 7 8 6 5 9 12 10 13 15 14 16 19 18 15 11 10 8 8 9 11 13 16 18 17 18 20 22 28 32 32 33 34 34 36 37 37 37 36 35 34 33 33 32 30 28 28 29 30 29 27 26 26 27 26 27 28 28 28 26 24 22 21 20
4 6 6 7 7 6 7 6 6 6 5 7 6 7 9 11 13 14 15 11 6 6 10 10 8 6 5 7 11 13 15 16 16 17 17 17 17 15 13 10 10 11 12 13 14 16 18 19 20 24 29 32 32 32 33 33 35 37 37 37 36 34 32 33 33 32 31 30 29 29 30 29 28 27 25 24 25 26 27 27 26 25 23 22 21 21
4 6 8 8 7 5 5 6 6 5 6 7 6 7 9 10 12 13 12 11 7 6 9 13 9 6 7 6 7 12 17 18 19 20 17 15 15 16 15 12 11 13 14 15 16 17 18 20 25 30 31 32 32 34 34 35 36 36 37 37 35 33 32 32 33 32 32 31 30 29 29 29 28 27 25 24 25 27 27 26 25 24 23 22 22 21
3 5 7 7 6 6 6 6 5 5 7 8 7 9 9 10 11 11 10 9 7 5 10 15 10 5 5 4 6 10 15 19 19 17 15 13 13 15 16 13 12 13 14 15 18 19 20 24 30 32 31 32 33 34 35 35 34 35 35 35 35 34 32 33 33 32 32 31 30 30 29 28 28 27 25 25 26 27 27 26 25 24 23 23 22 22
1 2 3 4 5 6 6 6 6 7 8 6 6 8 8 9 9 8 8 6 6 7 13 19 14 7 6 5 8 10 12 14 13 12 13 13 13 15 15 12 12 13 12 14 17 18 20 24 28 28 29 30 31 32 33 32 33 34 34 35 35 34 33 33 33 33 33 32 31 31 30 29 29 28 26 26 27 27 27 27 25 24 23 23 22 22
3 4 3 3 5 4 5 5 6 7 6 3 4 5 4 6 6 5 7 6 6 8 13 18 16 11 8 7 8 10 10 11 13 15 16 16 16 17 13 10 12 13 13 15 16 15 15 16 18 21 24 26 28 30 31 32 33 33 33 34 34 33 33 34 34 33 33 33 31 30 31 30 30 30 29 28 29 29 28 27 26 24 23 22 22 22
4 7 6 5 5 5 5 4 4 5 5 4 4 4 4 4 4 5 6 5 7 10 13 14 11 10 10 8 9 12 12 13 14 15 17 18 20 18 12 10 12 13 14 15 15 14 14 13 14 17 21 24 26 29 31 33 33 33 33 34 34 33 34 34 34 34 33 33 31 29 31 32 30 30 30 30 30 30 29 28 27 25 24 23 23 24
4 5 6 7 6 7 8 6 4 4 5 7 6 4 5 5 5 6 5 6 8 10 13 14 8 7 8 6 10 15 15 16 16 16 18 20 21 18 12 12 13 14 15 15 15 14 14 14 14 17 22 25 26 29 32 33 34 33 33 35 34 33 34 34 35 34 33 33 31 29 31 32 31 30 30 30 30 31 30 28 28 26 25 25 25 25
5 5 5 9 5 6 12 11 9 7 5 6 7 6 7 6 5 5 5 7 8 7 10 13 8 5 6 5 10 15 16 16 16 16 18 18 18 16 11 13 14 15 15 15 15 16 17 17 17 20 24 26 28 32 33 33 34 33 33 35 35 34 35 35 35 33 32 32 32 30 30 31 31 30 30 30 29 30 29 28 27 27 26 26 26 26
6 6 6 9 4 4 10 12 12 10 5 5 6 6 7 8 7 4 4 7 6 4 7 9 6 5 5 6 10 15 16 16 15 16 17 16 16 13 10 13 14 14 15 15 15 17 18 17 19 22 25 27 30 33 33 33 34 33 34 35 36 35 35 35 35 33 32 31 31 31 30 29 30 30 29 29 28 29 28 27 27 27 27 27 26 25
5 6 4 6 4 6 10 11 12 11 7 4 6 7 8 10 9 6 6 5 6 5 6 5 4 5 6 7 9 16 16 16 17 17 16 15 14 11 10 13 14 14 15 16 16 17 17 16 18 23 27 29 30 32 32 34 36 36 36 36 36 35 34 34 34 33 33 32 31 30 29 28 28 29 29 29 28 28 27 27 28 28 27 27 27 26
4 4 3 6 8 9 12 15 14 15 11 5 5 9 9 10 10 6 5 4 5 5 5 5 6 7 7 6 7 15 18 18 19 16 12 11 11 10 11 13 16 17 17 17 17 17 16 16 17 22 28 31 34 35 36 37 36 37 37 36 36 35 34 34 34 33 33 33 31 30 29 27 26 28 28 28 28 27 27 28 28 28 28 28 28 27
3 4 5 6 8 6 7 9 10 14 16 11 6 5 4 5 8 6 4 4 4 4 4 6 8 8 7 5 6 13 18 18 18 13 9 10 10 10 11 14 17 18 16 16 16 15 15 16 18 23 27 30 34 36 36 37 36 35 35 35 35 34 33 33 33 33 33 33 32 31 29 26 25 26 27 27 27 27 27 28 28 29 28 28 28 27
3 2 3 3 4 2 2 4 5 7 12 13 9 5 2 2 4 4 5 5 4 5 4 5 7 6 6 6 8 13 17 17 13 9 8 10 11 11 12 13 15 16 15 15 15 15 15 16 19 25 29 30 32 32 32 33 34 34 34 33 33 33 31 31 32 33 33 33 32 31 29 26 25 26 26 26 26 27 27 28 28 29 28 28 28 26
2 1 4 2 2 1 1 3 6 7 7 8 9 7 4 4 4 3 5 6 4 4 3 4 5 5 6 5 9 13 15 14 11 10 10 10 12 13 13 14 15 15 16 17 16 16 16 16 19 25 29 30 31 30 30 32 33 32 32 32 33 33 32 32 33 34 33 32 31 30 29 27 26 26 26 26 26 27 27 28 28 29 28 28 28 26
3 2 4 4 3 2 3 5 7 9 8 7 7 7 6 6 4 2 4 5 4 4 5 4 3 6 6 4 6 9 10 8 10 12 11 11 14 15 14 16 17 17 16 17 17 16 16 15 17 22 25 25 26 27 29 31 30 30 31 32 32 33 32 33 33 33 33 31 29 29 29 28 27 26 26 26 26 27 28 28 28 29 29 29 28 27
4 2 2 4 6 6 7 10 10 8 7 4 4 7 6 4 4 3 4 4 3 4 3 3 4 6 6 5 6 7 7 7 9 11 10 11 14 15 14 15 18 18 17 17 17 16 15 15 17 21 23 25 26 27 29 30 30 31 31 31 32 32 33 33 33 32 31 29 28 29 29 28 27 26 26 27 27 27 28 29 29 29 30 29 28 27
4 2 2 4 5 6 7 9 8 7 6 1 4 6 6 5 6 6 6 4 4 6 4 3 5 7 6 5 6 6 5 7 8 9 9 9 9 11 14 15 16 16 16 17 16 15 14 14 16 17 19 22 24 26 27 28 29 30 30 30 31 33 33 33 32 31 30 29 28 29 29 28 27 28 28 28 28 28 29 30 30 30 30 30 28 27
2 2 2 3 2 2 2 2 3 4 3 2 4 6 7 8 9 8 7 4 4 8 5 5 4 7 6 5 6 7 3 6 7 9 9 10 8 9 12 14 15 15 15 16 16 15 15 15 15 14 16 20 23 25 26 26 27 29 29 30 31 32 32 32 31 31 30 28 28 29 29 28 28 29 28 28 28 29 30 30 30 30 29 29 29 28
1 3 2 2 1 2 2 2 2 2 2 2 4 7 8 8 9 7 5 3 3 6 5 5 4 6 6 7 8 8 4 7 8 8 8 9 10 11 12 12 13 14 15 17 17 16 16 15 15 15 16 20 23 24 25 26 27 28 29 30 31 30 31 32 32 31 30 29 29 30 30 29 29 30 29 29 29 30 31 31 31 30 29 29 29 27
0 3 4 5 4 3 3 4 3 2 2 2 4 6 6 7 8 7 5 4 4 5 5 3 4 2 7 7 6 8 5 6 8 8 7 8 9 11 12 13 13 13 15 17 16 16 16 16 16 16 17 20 23 25 26 27 28 28 28 29 29 29 30 31 32 31 29 29 30 30 30 30 30 30 29 29 30 31 31 31 31 30 29 29 28 27
1 2 5 7 7 6 6 6 5 4 5 6 6 5 5 6 7 6 6 6 4 3 5 6 1 2 5 7 5 8 7 4 6 8 8 9 10 11 11 13 14 13 14 14 15 16 17 16 16 16 15 18 22 24 25 26 27 28 28 29 29 29 30 31 32 31 29 29 30 30 30 31 30 30 30 30 31 31 31 31 30 30 29 28 28 27
2 3 4 4 5 7 7 7 7 7 8 7 7 5 6 7 6 5 8 9 6 3 4 7 4 2 4 7 6 7 7 5 6 6 6 9 12 12 12 13 13 14 15 15 16 17 17 16 16 15 14 17 21 23 23 24 25 26 27 28 28 29 30 30 31 30 29 29 31 32 31 30 30 30 31 31 31 31 30 31 30 29 29 29 28 27
2 2 3 2 5 7 5 6 8 8 7 5 5 6 6 6 5 7 11 10 6 4 2 4 6 4 4 6 7 8 8 4 4 6 7 9 12 13 13 13 14 14 15 16 16 15 16 16 16 16 15 16 20 23 23 23 25 26 27 27 28 28 28 30 30 29 28 29 30 32 32 31 30 31 31 32 32 31 31 30 30 29 29 29 29 27
2 1 2 2 3 4 3 3 3 5 4 4 4 4 2 2 5 7 9 6 4 5 2 1 5 6 3 5 6 6 4 4 6 9 9 9 13 15 13 12 13 15 15 16 16 15 14 14 15 16 15 16 20 24 24 24 25 27 27 27 28 28 28 29 29 27 28 29 29 30 32 31 31 32 32 32 32 31 30 30 29 29 29 30 29 28
1 1 3 4 3 4 3 6 5 0 2 1 2 2 1 2 4 6 7 4 2 4 1 2 2 5 4 4 4 4 7 10 8 7 8 7 9 15 16 14 13 14 14 15 15 14 14 14 15 15 15 17 22 24 24 25 26 26 27 28 28 28 28 29 28 27 27 29 30 30 31 32 32 31 31 32 31 31 30 28 29 29 30 30 29 29
1 1 2 2 3 4 5 8 6 2 4 3 4 3 2 2 4 6 7 6 5 4 2 2 3 6 7 4 2 6 9 10 7 4 5 5 5 9 14 16 16 16 15 15 15 16 16 14 14 14 16 19 23 25 26 28 28 27 28 28 28 28 28 28 28 27 27 29 31 31 32 32 32 31 30 31 31 30 29 28 29 30 30 30 30 30
1 2 1 0 1 4 7 8 4 3 2 3 4 3 5 4 6 6 7 8 7 4 2 1 4 7 7 3 4 7 7 7 5 4 3 5 6 6 7 10 13 15 16 16 15 15 15 13 12 14 18 21 23 25 26 27 27 26 27 28 28 28 28 27 28 28 28 29 30 31 32 32 31 31 30 30 30 30 29 29 29 30 31 31 30 30
1 2 1 1 1 3 6 6 4 2 4 5 5 2 6 9 9 8 8 9 8 5 3 3 7 8 4 1 4 7 7 6 6 7 6 5 6 7 7 7 8 10 13 15 15 15 13 13 13 15 19 22 24 25 26 26 26 26 27 28 28 28 28 28 28 29 29 29 30 31 32 31 31 31 30 30 30 30 29 29 30 30 30 31 31 31
2 2 1 1 1 2 4 4 1 4 6 7 6 2 4 5 4 3 6 8 6 6 6 7 8 7 3 4 3 4 6 6 8 8 7 5 7 9 8 7 8 9 8 9 12 14 15 17 19 21 23 25 27 27 27 27 28 27 27 27 28 28 27 27 30 30 29 29 31 31 32 32 31 31 31 31 30 29 29 29 30 30 29 30 30 30
4 2 1 1 1 0 2 1 2 2 6 6 2 1 0 3 2 1 5 6 5 5 6 7 6 4 5 7 4 2 3 5 7 7 7 5 7 10 10 7 8 9 8 7 9 14 19 23 25 27 28 28 29 29 29 29 29 27 26 26 28 29 27 25 28 31 30 29 31 32 31 32 32 31 31 31 30 29 29 29 30 29 29 30 30 30
3 1 0 0 1 1 2 2 2 3 2 4 3 4 4 4 5 5 5 4 3 4 4 6 7 5 5 7 5 2 4 6 4 2 5 4 5 10 11 9 9 9 10 11 13 16 21 26 28 29 31 30 29 30 31 31 30 27 26 26 27 29 29 25 25 29 31 30 31 32 32 32 32 31 31 30 30 29 29 29 29 29 29 30 31 31
2 2 2 1 2 1 2 0 1 1 3 5 7 12 11 10 9 4 3 4 6 9 7 3 7 6 5 6 4 3 5 4 2 4 3 2 4 8 10 10 10 11 13 16 19 20 24 29 30 31 32 31 29 30 32 32 31 28 25 25 27 27 27 26 26 29 31 30 31 32 31 31 32 31 30 30 30 30 30 29 30 29 29 30 32 32
1 3 2 0 2 1 1 1 2 2 3 5 9 12 14 12 7 2 2 5 7 10 10 4 4 5 5 5 5 5 5 5 5 5 3 4 4 6 9 11 12 12 13 17 21 23 25 29 30 29 29 30 30 31 32 32 30 27 25 26 26 26 25 26 28 30 31 31 31 31 30 30 31 31 30 29 29 30 31 30 30 30 29 30 32 33
0 1 1 2 3 2 1 2 3 3 3 6 11 13 13 9 3 3 4 6 8 11 9 7 4 1 4 5 3 2 3 4 4 3 3 3 2 5 5 7 11 14 17 21 25 28 27 27 27 27 27 30 31 31 32 31 28 26 27 27 25 24 26 28 30 31 31 31 30 31 30 29 29 29 29 29 29 30 30 30 30 31 30 31 31 32
1 1 1 1 2 2 2 2 3 3 2 7 13 12 7 3 1 2 4 5 8 10 7 7 8 6 2 5 3 3 3 4 5 6 5 4 3 3 2 4 8 11 16 22 26 28 27 25 25 26 25 28 31 31 32 32 28 26 26 26 26 27 29 31 31 31 31 30 30 30 30 29 29 29 28 29 29 29 29 28 29 30 31 31 30 30
2 2 1 2 2 0 0 1 2 2 3 10 14 9 4 3 1 3 5 5 6 9 7 6 8 8 2 4 3 3 5 7 7 7 6 4 4 4 4 5 8 10 13 18 21 24 24 22 22 23 24 26 30 31 32 32 29 26 24 24 27 31 33 32 31 31 30 29 29 29 29 29 29 29 29 29 30 30 29 28 28 29 30 30 30 29
2 2 1 1 1 1 1 1 1 3 4 8 8 4 3 3 3 2 4 4 6 7 5 4 5 8 4 5 5 3 5 7 7 6 6 6 6 6 6 6 7 7 8 10 12 17 21 20 19 20 22 26 28 29 31 32 29 27 25 24 28 32 32 31 31 30 29 28 27 27 28 28 29 29 29 30 30 30 29 29 28 28 28 30 30 29
1 2 1 1 2 1 1 3 2 3 4 4 4 3 5 6 4 2 2 2 2 4 5 5 5 6 4 5 5 3 3 5 7 7 6 5 6 7 7 7 8 10 11 13 13 13 16 19 21 20 20 24 27 27 29 32 31 26 25 26 30 33 32 31 31 29 28 27 27 26 26 27 27 27 28 29 30 31 30 29 28 27 27 28 29 29
2 3 2 1 2 2 1 3 3 3 4 4 4 4 5 5 5 4 3 2 2 4 7 8 5 2 3 4 4 4 5 4 4 5 5 5 5 6 7 7 8 11 15 17 17 17 17 19 22 21 19 22 27 27 27 31 32 30 27 28 30 32 33 32 31 29 28 27 27 27 26 26 25 25 26 28 29 30 30 31 30 28 28 28 28 28
3 2 1 2 3 2 1 3 3 3 4 5 6 5 5 6 6 5 4 3 4 6 7 7 1 5 6 6 6 6 6 7 7 5 4 4 4 4 6 7 7 9 12 14 18 21 20 19 19 20 20 21 25 27 27 27 29 31 32 31 30 31 33 33 31 29 28 27 27 27 26 25 24 23 24 26 27 27 27 29 29 27 27 27 27 26
3 3 3 4 3 1 3 4 5 4 3 4 5 5 6 7 8 7 5 4 7 6 6 3 6 8 6 6 6 5 6 8 8 6 4 4 3 3 4 4 5 8 12 15 19 22 21 18 18 20 21 21 23 27 29 27 27 30 33 33 32 32 32 32 31 30 28 28 28 26 26 26 25 24 24 25 25 25 26 26 27 27 28 29 30 30
4 3 2 2 2 2 3 5 7 5 4 6 7 7 6 7 7 8 8 7 10 8 8 5 7 7 5 6 5 5 6 7 7 6 4 3 4 4 3 3 4 5 9 15 20 22 21 20 20 20 22 22 24 26 27 28 29 31 31 32 32 32 31 30 29 27 26 26 26 25 25 25 25 25 25 25 24 25 25 27 28 29 30 32 33 34
3 3 2 1 2 2 3 4 5 2 2 5 8 9 8 8 8 9 9 10 11 8 8 7 7 7 7 7 6 6 7 6 5 5 5 5 6 6 5 6 6 6 9 14 17 19 20 22 23 22 22 23 25 26 26 26 28 29 31 32 32 31 30 29 26 23 22 23 23 23 24 24 24 25 25 25 25 25 24 24 26 28 30 30 30 31
3 3 4 2 1 2 4 5 4 2 1 4 7 9 9 8 8 9 8 8 10 8 7 6 6 8 9 8 7 7 7 5 5 6 6 5 6 8 9 9 7 6 10 16 17 16 17 21 24 23 23 24 26 27 27 27 27 28 30 31 31 31 30 28 25 22 21 21 22 23 25 25 24 24 24 25 26 26 24 23 22 23 24 24 24 26
Wind_Direction
151 177 218 211 223 220 219 227 239 260 291 303 303 280 258 257 255 251 248 248 245 248 243 235 239 239 228 226 227 233 242 229 225 232 234 234 240 234 208 189 185 193 197 191 188 190 192 190 184 181 181 179 178 179 177 177 179 180 180 180 180 181 183 184 185 188 189 184 181 181 182 185 187 189 191 194 197 199 203 205 204 205 208 206 202 203
66 195 230 227 223 224 233 256 268 281 292 291 287 282 268 257 259 260 256 253 243 243 250 240 234 235 230 227 226 222 229 238 224 217 226 226 232 238 229 213 188 185 199 187 181 187 190 187 180 177 176 174 175 177 179 180 182 182 181 180 179 180 182 184 186 189 190 185 180 178 180 184 186 188 191 194 196 199 203 206 206 206 207 204 202 207
308 242 242 242 234 224 237 250 259 267 271 268 263 266 265 261 272 273 266 267 256 242 247 245 237 235 230 223 224 218 218 230 227 211 213 215 220 229 232 229 198 159 171 180 177 185 188 183 177 173 174 176 177 178 180 182 181 180 179 180 182 183 182 184 187 190 188 183 183 183 183 183 184 188 193 196 197 198 203 206 206 206 206 204 204 210
254 250 244 242 227 222 234 239 243 254 259 252 251 251 253 257 265 266 262 267 269 263 251 247 249 246 234 224 220 217 215 224 229 226 219 207 208 216 219 227 210 166 164 175 178 184 184 179 174 173 175 177 176 177 180 181 178 176 178 182 184 184 183 185 188 188 184 178 180 185 186 184 184 188 193 198 200 202 205 205 204 205 206 205 207 212
238 251 252 226 221 219 231 237 231 236 251 250 248 246 252 256 252 259 276 281 285 280 256 241 253 249 225 223 222 217 217 223 225 229 231 222 214 215 212 221 218 184 169 171 178 183 180 176 176 177 176 174 175 178 181 181 178 177 181 184 184 183 183 186 187 185 181 176 175 178 180 182 184 186 191 197 198 201 205 204 203 204 204 205 209 214
241 243 237 246 246 233 233 239 226 218 242 253 245 245 253 261 260 264 272 275 286 283 258 223 234 254 230 221 223 217 220 225 224 225 229 229 226 218 212 214 208 193 183 175 177 181 180 178 178 176 175 175 178 182 182 182 179 179 182 183 184 184 184 186 186 184 182 179 176 175 175 178 182 185 191 195 195 196 199 200 199 200 201 205 209 213
235 206 191 228 242 240 239 240 223 205 230 252 238 240 251 259 264 263 262 260 249 266 274 245 229 260 263 223 214 211 220 223 223 227 227 227 227 219 214 209 191 193 192 182 181 181 180 178 174 175 179 180 180 181 181 180 180 180 181 182 183 183 184 186 185 184 185 182 181 182 182 183 185 188 192 195 195 193 193 193 194 196 199 204 209 212
196 181 192 225 234 240 240 239 224 197 222 252 236 235 249 253 255 255 256 258 257 275 289 279 253 246 253 230 208 204 216 223 220 222 224 222 225 224 221 208 190 192 188 182 185 183 181 179 176 179 182 182 179 177 177 178 180 181 181 182 183 182 183 184 184 184 187 186 185 187 189 189 191 194 195 195 193 190 190 190 191 194 197 200 207 212
155 185 205 217 227 235 233 232 227 208 232 254 244 238 249 256 257 257 256 255 263 285 282 273 265 240 240 241 214 203 211 220 219 219 219 219 222 226 225 210 192 193 186 178 182 184 186 184 182 182 180 179 176 175 176 178 181 182 182 181 181 181 182 182 184 186 188 191 190 191 192 192 195 197 197 195 192 189 190 190 190 193 194 197 204 211
172 199 201 197 212 226 228 229 222 224 245 259 254 245 250 263 267 263 259 254 253 256 256 259 256 245 252 236 207 209 212 216 217 216 216 214 217 223 225 213 193 190 185 179 181 185 189 188 184 180 175 174 175 175 177 177 179 181 180 179 179 181 181 182 185 187 189 193 195 195 195 194 194 195 195 194 191 189 190 189 189 191 193 197 204 209
254 268 224 204 218 222 225 225 216 226 247 278 280 255 245 253 261 267 265 250 237 237 246 252 250 247 268 239 207 214 216 212 210 213 214 213 216 222 224 211 192 186 180 180 184 187 189 187 181 175 170 171 172 173 174 175 178 180 179 178 178 180 181 182 186 189 191 195 198 199 198 197 194 192 191 188 186 185 187 187 187 188 192 197 203 206
285 274 254 223 222 215 220 224 218 227 238 270 282 261 248 243 244 262 257 225 218 235 238 244 249 247 249 244 228 223 213 204 202 205 207 209 218 224 220 198 187 184 177 178 185 185 183 178 173 168 167 167 166 169 172 174 177 179 180 178 176 178 181 182 186 190 193 195 199 202 202 200 196 193 191 187 185 183 183 184 184 185 189 194 199 202
260 248 249 251 234 208 210 222 218 231 236 226 233 243 240 230 218 234 236 209 216 237 237 236 240 245 246 247 241 229 209 200 203 203 201 205 217 222 207 182 183 182 176 178 180 178 175 172 168 166 165 165 166 169 172 175 177 179 179 177 175 177 181 182 185 190 194 195 199 203 203 201 196 193 192 189 187 185 184 184 183 184 186 190 194 196
273 271 251 246 245 214 209 214 210 212 218 217 214 212 218 211 204 217 212 205 219 232 239 235 228 246 259 253 230 221 204 195 196 198 200 205 215 218 196 177 182 181 177 177 175 174 175 174 169 166 166 168 170 172 174 177 178 178 178 178 177 178 181 183 185 190 194 196 200 202 202 199 194 192 191 191 190 189 188 186 185 186 188 191 193 194
234 272 234 219 221 200 207 211 211 209 209 217 212 211 229 228 223 221 198 208 223 227 234 231 221 223 237 231 217 211 202 196 192 195 203 207 214 214 190 175 181 180 178 176 173 175 177 174 169 167 168 170 171 173 176 178 178 177 177 178 178 178 181 184 185 188 193 196 200 201 200 197 195 193 192 193 195 193 191 188 187 189 191 193 194 192
214 250 222 204 207 201 212 213 205 206 217 220 208 210 230 232 236 250 232 214 200 203 233 226 215 225 241 243 213 200 200 198 193 198 203 208 215 209 179 173 180 179 177 175 174 178 178 173 168 167 168 171 173 175 177 178 178 177 178 179 180 179 181 183 184 188 193 197 198 199 198 196 195 194 194 196 198 195 193 191 191 191 192 194 192 186
203 245 198 179 224 229 228 230 208 198 207 204 198 216 236 240 243 252 254 229 163 183 243 233 223 246 260 266 219 194 195 199 201 204 201 206 212 197 172 175 180 177 176 176 177 178 175 170 168 169 170 171 174 176 178 179 179 179 179 180 180 180 180 182 183 187 193 195 195 195 196 196 194 195 197 198 195 192 192 193 192 191 191 192 189 183
198 253 210 189 233 233 231 236 215 198 201 193 191 211 227 241 245 246 260 252 160 181 245 224 215 230 236 264 228 191 190 200 207 206 197 201 202 184 175 179 178 177 176 177 177 175 170 167 168 172 173 174 175 177 179 180 180 180 181 180 179 179 180 181 182 186 190 192 192 192 194 193 192 195 198 198 193 190 190 190 190 190 189 190 188 182
192 251 261 221 233 247 241 232 207 196 202 205 215 213 187 214 238 237 249 254 187 190 245 216 208 220 218 234 222 194 191 201 208 203 193 197 192 181 180 179 179 178 174 174 175 172 168 169 171 173 175 176 177 179 179 179 179 180 181 181 180 179 180 179 180 184 188 190 190 191 192 190 189 195 196 193 190 189 190 189 188 188 189 190 188 182
161 225 281 210 183 200 244 209 191 198 201 206 226 235 154 181 234 222 227 249 216 200 233 212 202 224 232 213 197 194 195 199 199 193 198 198 190 187 181 176 179 177 172 172 173 171 170 171 172 172 174 176 177 178 177 176 178 179 179 180 179 178 179 178 179 183 186 189 189 189 189 189 190 194 194 190 188 189 190 188 187 187 187 187 187 183
124 199 255 250 113 105 279 211 197 203 200 203 216 217 202 222 244 242 237 245 222 192 205 199 205 244 254 209 183 193 203 199 181 180 198 199 193 192 180 172 177 177 173 173 171 170 169 168 171 173 175 176 175 174 174 175 178 178 177 178 178 176 177 177 179 183 186 186 188 188 186 187 192 193 189 187 188 189 189 187 185 186 186 185 186 185
146 171 238 273 316 277 243 235 218 204 197 199 203 205 209 219 225 254 267 251 217 199 195 180 215 261 256 212 180 194 207 200 183 184 195 199 195 192 181 173 175 177 174 172 168 166 165 166 169 170 171 171 170 171 173 175 175 175 176 178 177 175 177 179 180 183 185 183 185 186 185 187 190 188 186 186 186 187 186 184 184 184 184 184 184 186
140 130 225 258 264 247 239 242 226 183 166 183 204 206 212 227 216 204 247 266 253 234 213 178 228 267 262 229 204 200 197 191 196 196 191 196 195 186 176 172 174 175 170 167 166 163 164 166 166 165 166 167 170 172 173 173 174 175 177 176 175 176 178 181 181 183 183 181 182 184 184 185 186 184 185 185 184 185 184 183 183 184 184 183 181 182
119 113 238 262 270 270 266 250 218 147 118 150 219 215 216 235 241 240 256 283 302 279 248 174 221 260 281 274 250 236 198 168 191 200 179 176 183 173 166 168 172 171 165 162 162 161 161 162 161 163 164 166 170 172 172 173 174 174 175 175 176 178 180 181 182 182 182 181 180 180 182 183 183 183 184 183 182 183 182 182 182 183 184 181 179 178
154 142 234 274 299 305 295 255 198 149 149 183 210 218 219 233 251 271 279 272 272 262 226 151 196 245 276 322 308 280 228 156 186 205 174 155 155 157 160 166 167 162 158 158 157 157 158 159 160 162 165 168 169 170 170 171 172 173 174 175 177 178 179 180 182 182 181 180 178 178 180 181 182 183 182 180 181 183 183 181 181 181 182 180 178 177
170 159 205 244 190 140 145 178 182 175 194 198 212 217 219 231 239 251 275 264 256 263 231 163 189 252 296 349 340 303 249 178 196 208 178 150 146 152 158 164 163 156 156 157 156 157 159 159 162 164 166 169 168 167 168 169 172 174 174 176 178 178 177 179 181 181 181 180 176 176 178 179 181 182 180 179 180 182 182 181 180 180 180 180 178 176
158 183 213 226 210 188 203 220 214 201 239 240 244 236 227 237 239 245 269 256 256 297 291 230 181 255 317 336 338 309 272 204 205 199 167 137 137 152 161 162 160 157 156 156 154 157 159 160 164 165 166 167 165 165 167 168 171 173 173 176 178 177 176 177 179 180 181 180 176 175 177 179 180 180 179 179 180 181 181 180 180 180 180 181 181 177
135 219 220 216 227 238 243 259 269 272 265 249 249 253 247 253 258 265 270 256 261 321 305 284 242 126 295 294 294 295 287 237 215 196 163 143 143 153 158 157 157 153 150 151 152 156 160 161 163 163 163 162 161 163 165 168 171 171 172 175 177 176 177 177 177 179 181 179 176 176 177 178 179 178 179 180 180 180 180 178 179 180 181 182 181 177
143 253 231 204 255 271 260 263 262 254 250 236 222 223 237 252 262 275 275 266 263 254 254 279 287 160 244 278 281 280 275 243 217 200 160 145 145 149 153 153 151 150 149 152 156 160 162 161 160 161 161 159 159 160 163 166 168 168 170 174 175 175 176 176 177 180 180 176 175 176 177 176 175 175 176 178 179 179 178 177 177 179 180 181 180 177
126 254 256 244 290 292 269 247 231 229 240 232 217 216 223 246 268 278 275 271 277 289 283 288 286 254 234 260 273 279 275 242 173 151 134 138 143 145 151 151 149 151 153 156 159 161 162 161 160 160 158 158 159 160 163 165 166 167 170 173 175 174 173 174 176 178 176 174 173 173 174 173 172 172 173 174 176 176 175 175 176 177 178 179 179 176
125 254 297 347 314 288 288 294 252 222 225 219 219 220 211 286 298 279 276 293 325 311 315 334 287 286 264 247 265 290 321 50 100 127 136 147 150 146 148 151 152 154 155 156 159 159 159 159 159 159 159 160 162 162 163 165 166 168 170 173 175 174 173 174 174 174 172 172 171 169 168 169 170 170 171 171 173 174 173 175 176 176 176 178 177 176
104 315 340 25 344 283 311 331 317 279 94 352 293 299 30 335 297 285 285 289 261 255 288 42 307 287 282 263 280 345 35 54 69 108 125 138 153 151 152 154 154 154 154 155 155 154 157 158 159 160 160 160 161 162 163 164 165 169 171 172 173 172 172 173 172 170 169 169 168 166 165 166 167 167 168 169 171 172 174 177 178 176 176 177 176 176
100 51 356 20 330 286 304 317 311 42 58 347 275 230 185 232 269 292 295 274 230 204 159 130 203 251 279 289 39 38 41 52 49 63 103 112 132 149 155 158 157 156 154 155 157 157 159 161 161 160 160 160 161 163 165 165 166 169 169 169 170 171 171 171 169 166 165 165 164 163 164 166 166 166 167 169 171 173 176 179 178 176 177 177 176 177
84 100 103 324 334 288 302 320 345 73 98 262 249 175 162 215 245 255 267 264 251 226 183 191 238 252 276 306 84 74 55 54 41 21 58 94 102 111 131 146 154 157 154 154 158 159 158 156 152 152 155 158 160 161 163 164 164 164 164 165 167 168 168 168 165 163 163 162 160 161 163 165 166 166 168 169 171 173 175 177 177 177 178 177 177 178
65 99 170 218 150 285 314 356 48 149 216 256 284 232 186 208 217 218 242 257 252 233 205 240 256 247 250 349 79 94 93 86 65 38 28 53 89 97 94 102 124 144 153 157 156 154 151 147 144 146 151 154 156 157 157 160 161 161 163 164 163 164 165 164 160 159 161 160 159 161 163 165 165 165 166 168 169 171 174 176 177 177 177 178 179 180
142 130 207 213 188 294 353 34 107 238 269 288 293 258 211 227 208 199 259 265 245 228 215 210 230 231 152 92 74 102 118 104 70 39 15 33 82 96 95 95 107 123 139 153 156 155 153 151 151 150 151 153 154 155 155 159 162 163 163 163 161 161 163 162 159 159 160 159 159 162 165 165 164 164 165 166 168 171 174 176 177 177 178 178 179 180
138 132 7 353 301 41 32 342 253 300 321 317 329 101 291 307 305 225 250 250 228 236 233 199 194 189 122 106 102 110 99 75 60 29 358 14 81 100 102 98 103 113 118 123 138 147 147 149 149 149 149 151 153 155 158 162 165 163 161 161 161 161 161 160 158 158 159 159 160 163 166 166 165 164 165 166 169 172 175 177 178 178 178 177 175 176
116 106 129 349 317 52 67 326 339 29 312 268 291 314 313 311 289 246 221 240 286 317 277 191 165 149 121 118 126 111 54 58 65 1 337 354 91 109 113 116 116 123 132 135 138 141 142 145 146 147 149 151 154 159 162 163 164 161 158 159 159 158 158 158 157 155 156 160 163 165 166 167 167 166 167 168 171 174 176 178 179 180 180 178 176 175
93 28 80 86 309 342 76 33 271 165 230 261 311 320 318 314 300 267 202 255 317 341 326 221 159 144 135 130 123 90 80 101 185 255 268 217 152 126 125 132 137 142 148 149 148 148 148 148 147 147 150 152 156 161 163 163 161 158 155 156 156 154 155 157 158 157 158 161 164 165 168 169 170 170 171 171 173 175 177 179 180 181 180 179 178 177
66 11 27 18 281 288 60 309 253 220 253 303 325 320 310 310 320 51 175 258 307 339 334 314 163 156 144 118 94 87 113 164 208 231 207 181 184 164 153 155 157 153 145 143 146 147 147 147 147 150 154 157 159 161 161 159 158 154 153 155 155 155 157 159 159 159 160 163 165 167 169 170 171 173 174 174 175 177 179 180 180 181 179 178 179 179
199 337 297 268 282 289 229 252 273 259 267 319 324 312 302 308 354 115 198 254 303 323 330 347 339 240 132 109 107 130 166 184 179 160 132 125 177 208 191 166 156 149 145 145 148 148 148 150 153 156 159 160 159 159 158 156 154 153 155 156 156 157 159 160 159 159 161 164 166 167 171 173 174 176 177 176 177 178 179 181 180 179 178 177 178 178
218 245 252 242 268 272 212 227 297 277 283 340 330 315 313 332 143 207 244 270 307 309 318 2 344 315 87 99 121 166 152 131 112 104 96 100 144 177 170 134 129 133 140 146 149 152 152 153 156 157 158 159 159 158 157 155 152 153 157 158 158 159 159 158 158 159 162 165 167 168 172 176 178 180 179 178 179 179 178 179 179 178 178 178 177 175
204 234 244 214 209 221 70 17 339 262 298 341 336 331 10 45 216 271 299 306 325 321 325 7 344 307 300 105 132 161 134 113 105 108 108 104 111 112 113 128 132 135 143 147 152 155 151 148 151 152 152 155 158 159 159 156 152 153 156 156 157 158 158 158 158 160 162 165 167 169 172 176 178 179 179 180 181 181 179 178 177 176 176 176 174 172
212 240 252 223 201 140 135 204 249 249 289 336 345 343 353 329 275 287 316 322 347 342 330 349 315 274 234 137 137 154 130 116 114 119 118 115 114 106 101 109 110 112 121 123 130 142 144 141 142 144 146 151 156 158 158 154 151 152 153 155 155 155 156 157 158 159 161 163 165 168 172 176 179 179 180 181 181 180 179 177 176 174 174 174 173 171
244 267 242 230 250 236 217 241 267 287 297 334 353 312 301 306 300 290 270 279 10 356 319 296 263 238 192 132 123 109 99 112 120 120 114 111 112 111 112 116 111 108 108 103 107 130 145 144 139 138 142 150 153 155 155 154 152 149 150 154 156 155 155 156 157 158 160 162 165 169 172 176 179 180 180 180 179 179 177 176 175 174 173 173 173 172
278 283 227 231 306 321 307 286 305 331 336 346 339 296 289 309 323 324 290 270 49 19 310 275 237 168 95 87 90 70 47 48 74 89 96 102 109 116 123 123 120 124 129 132 136 147 154 147 139 136 139 146 150 153 154 154 153 149 148 153 156 155 155 156 155 157 161 164 167 170 173 176 177 179 179 178 179 180 179 178 179 177 176 177 177 178
320 330 347 21 14 18 344 313 323 336 348 348 332 318 330 341 347 356 326 307 43 27 303 272 135 73 60 64 75 76 66 55 48 38 40 69 95 118 124 121 126 139 145 147 148 151 152 146 140 137 136 142 149 150 148 149 150 149 150 154 157 155 154 155 156 158 162 166 167 169 172 175 176 177 178 177 179 180 181 181 182 180 179 179 179 180
330 344 355 9 17 283 258 307 326 312 321 352 339 333 350 348 349 2 350 358 46 26 305 295 75 71 62 62 66 75 81 77 74 62 36 33 53 76 91 105 132 153 158 156 154 152 149 144 141 139 136 139 147 149 147 148 151 151 151 154 156 156 155 156 159 161 164 166 167 169 172 176 176 177 177 178 179 181 182 184 185 185 185 186 187 189
316 334 342 345 346 281 273 334 350 335 338 2 357 349 350 346 350 1 358 16 42 21 319 337 62 75 77 74 66 69 77 76 77 80 73 56 59 62 64 78 102 133 152 156 154 149 145 141 137 134 133 136 141 144 144 147 151 152 151 151 154 156 157 158 160 162 164 165 166 168 173 176 178 178 178 178 180 182 185 188 190 191 193 196 200 203
335 347 346 8 18 334 319 346 355 337 334 351 348 346 346 348 0 7 1 15 37 21 330 344 33 44 49 55 53 66 78 64 43 53 66 72 78 80 74 74 81 92 110 123 127 129 131 133 131 128 128 132 135 137 138 141 145 149 151 153 158 161 161 159 158 160 163 164 166 170 174 176 178 179 179 179 181 183 186 190 193 196 200 203 207 210
349 334 339 30 98 315 333 349 355 358 315 323 340 351 349 347 4 12 3 17 41 31 349 355 35 43 39 34 32 52 72 65 54 65 61 58 85 93 85 81 81 84 99 110 114 114 117 123 128 128 128 131 134 136 138 141 145 150 154 158 162 164 162 158 156 158 162 167 170 174 176 177 178 179 180 182 184 185 185 188 194 202 208 212 213 215
Height
779 785 787 786 783 782 781 781 780 778 778 778 778 778 776 774 770 761 756 747 741 747 745 739 740 740 738 734 730 729 728 730 732 731 730 730 728 728 731 735 737 737 735 734 737 740 743 744 745 748 752 755 758 759 761 763 765 767 770 773 776 779 783 786 790 793 794 796 798 800 802 804 806 807 809 810 811 812 814 815 815 816 816 818 819 821
781 788 785 779 779 780 781 781 780 781 781 781 782 781 778 775 770 760 755 747 740 746 744 736 739 738 734 732 728 728 730 729 729 730 729 728 727 726 725 728 733 735 733 734 737 739 741 743 745 747 750 753 755 757 758 760 762 765 768 772 775 778 781 784 787 790 792 794 796 798 800 802 804 806 807 808 809 811 812 813 813 814 815 817 819 819
788 788 780 776 778 780 781 780 780 782 783 783 783 784 783 776 770 763 755 748 743 744 743 738 740 737 730 729 727 726 727 725 723 725 725 724 725 725 723 723 727 732 734 735 738 739 740 742 743 746 749 750 751 753 755 757 760 764 768 771 774 776 778 782 785 788 790 793 796 798 799 801 803 805 806 807 808 810 811 812 812 813 815 816 817 818
792 783 775 777 779 779 780 779 781 783 783 784 783 785 784 776 775 771 759 751 745 742 741 738 739 737 730 727 725 722 720 718 719 720 720 720 721 721 720 719 721 727 731 734 737 737 739 741 743 745 747 748 750 752 754 756 759 763 766 769 771 774 777 780 783 786 790 793 796 798 800 802 803 805 806 807 808 809 809 810 811 812 813 815 816 817
785 776 773 777 777 778 780 779 781 784 786 784 782 783 782 776 775 772 763 755 748 743 736 737 745 739 730 729 724 718 718 717 716 716 717 718 717 716 717 717 718 722 726 730 733 735 737 739 741 742 744 745 747 748 750 753 756 759 763 766 770 773 776 779 782 786 789 792 795 797 799 802 803 804 805 805 805 806 807 808 809 811 812 814 816 817
779 772 773 777 777 777 779 780 779 782 786 784 779 777 777 775 772 770 766 763 764 759 739 737 756 748 728 728 726 719 719 718 715 714 714 714 714 714 716 716 718 720 721 724 727 730 733 734 737 741 742 742 743 744 746 750 754 757 760 765 769 772 775 778 781 785 788 791 793 795 796 798 799 800 800 801 802 803 805 806 808 810 812 813 815 816
772 769 771 774 776 776 777 778 776 777 784 784 776 772 773 773 773 772 769 768 772 767 742 734 753 752 734 727 723 719 719 717 716 714 711 710 710 711 712 714 716 718 719 722 723 725 728 731 734 738 739 738 739 742 746 750 754 756 760 764 767 771 774 777 780 783 786 789 791 793 794 795 796 797 797 799 801 802 804 806 807 809 811 813 814 814
765 768 770 771 774 775 776 776 772 772 781 780 770 769 772 771 772 771 769 769 767 761 748 737 742 749 741 726 717 715 718 717 714 712 710 707 706 706 707 710 713 715 716 720 723 724 725 727 729 731 733 735 738 742 746 750 753 756 758 761 765 769 773 777 779 782 785 787 790 791 793 794 795 796 798 800 801 803 804 805 807 809 810 812 813 813
761 768 769 769 773 775 774 772 768 770 775 772 766 767 769 769 770 767 766 768 764 766 765 746 740 749 741 721 712 713 715 716 710 706 707 706 704 703 703 706 710 710 711 715 719 722 723 722 723 725 728 732 737 740 744 748 752 755 757 760 764 768 772 775 778 781 784 786 788 790 791 793 795 796 798 800 801 802 803 804 806 808 810 811 812 813
761 763 764 766 770 770 768 766 766 770 771 766 764 766 766 767 767 766 766 764 766 775 771 749 742 753 743 719 713 715 711 707 703 701 703 703 702 701 700 703 706 707 709 711 713 716 718 718 719 722 726 731 735 739 743 747 751 755 757 759 763 766 770 774 777 780 782 785 787 789 790 792 794 795 797 799 800 801 802 804 805 807 808 810 811 812
761 760 760 762 764 763 763 763 764 767 767 766 767 767 768 769 767 768 765 761 770 777 764 745 739 750 750 725 708 706 701 696 698 701 701 700 700 698 697 699 702 703 706 709 711 712 714 716 719 722 726 730 734 739 743 747 751 754 756 758 761 765 769 772 775 778 781 783 785 787 789 791 792 793 795 797 798 799 801 802 804 806 807 808 809 810
764 763 760 758 758 758 761 763 763 763 765 769 772 772 773 771 769 773 768 764 774 771 751 738 735 744 750 729 703 695 691 690 693 695 695 696 696 694 694 696 698 700 702 706 709 712 715 719 721 724 727 730 734 738 742 746 749 753 755 757 760 764 767 770 773 777 779 782 784 786 788 789 790 792 793 795 796 798 799 801 803 804 805 807 808 809
764 762 758 756 756 757 762 765 765 765 766 770 774 777 781 778 776 779 773 767 768 756 738 732 737 740 733 716 701 692 687 685 685 685 686 689 689 689 691 694 695 696 699 702 706 711 715 718 719 722 726 730 734 737 740 744 747 750 753 756 758 761 765 768 771 775 778 780 782 785 786 787 789 791 792 794 795 796 798 799 801 802 804 805 806 808
770 762 757 758 756 754 758 765 769 768 766 770 772 776 781 778 779 779 770 763 756 744 731 728 737 737 721 704 693 686 681 678 677 679 679 680 681 683 686 690 691 693 695 698 703 708 711 714 715 718 723 727 731 735 739 742 745 748 751 754 757 760 763 766 769 773 776 778 781 783 785 786 787 789 791 793 794 795 797 798 800 801 803 804 805 807
777 770 758 756 755 751 752 755 760 761 762 765 764 769 772 767 768 767 758 753 749 741 731 729 735 731 714 697 681 675 675 671 671 673 673 674 675 676 681 686 688 690 692 695 699 704 706 709 711 715 720 724 728 733 736 740 742 746 749 752 754 757 760 764 767 771 774 777 779 782 783 785 787 789 790 792 793 794 796 798 799 801 802 803 805 806
772 767 750 747 747 746 748 746 747 755 762 761 758 765 766 756 754 754 745 737 737 740 733 725 722 709 695 683 670 669 670 666 668 669 670 673 671 672 679 684 686 687 690 693 696 700 703 705 708 712 717 722 726 730 733 736 739 743 746 749 751 754 757 761 765 769 773 775 778 780 782 784 786 788 789 791 793 794 796 797 799 800 801 803 805 806
767 761 744 745 747 744 747 744 742 750 756 756 758 762 755 746 748 753 747 730 727 740 732 717 712 701 693 685 668 664 667 665 666 665 667 670 668 671 678 681 683 684 687 690 692 696 699 703 707 710 714 718 723 727 730 733 736 739 742 746 749 752 756 760 763 767 771 774 776 778 780 783 784 786 788 790 792 793 795 797 798 799 801 803 805 805
759 759 745 744 748 743 742 742 739 741 743 748 753 750 744 745 745 747 749 734 727 738 726 710 710 705 703 693 670 664 667 664 662 661 665 669 668 672 676 677 680 680 682 686 689 693 697 701 706 709 712 715 718 722 725 729 733 737 740 743 746 750 754 757 761 765 769 772 775 777 779 781 783 785 787 789 791 793 795 796 798 799 800 802 804 805
753 759 747 739 743 743 740 739 739 738 736 738 740 736 742 754 751 746 750 739 729 732 721 706 705 701 695 684 669 667 666 659 660 661 665 668 668 670 673 675 677 676 680 684 688 692 696 699 703 707 711 714 716 720 722 727 731 735 739 742 745 749 752 756 760 764 768 771 773 775 777 780 782 784 787 788 791 792 794 796 797 799 800 802 803 804
751 759 752 741 741 745 742 739 741 741 736 734 737 738 742 751 751 745 742 730 721 723 718 709 704 695 680 666 661 665 659 654 659 662 663 665 666 667 669 672 675 676 678 682 686 690 694 697 701 704 708 711 715 719 723 727 731 733 738 742 745 749 752 756 759 763 767 769 772 774 776 779 781 784 786 788 790 792 793 795 796 798 800 802 803 804
752 759 756 743 738 740 740 737 736 737 736 736 740 743 745 746 745 740 731 718 712 715 713 710 706 689 666 653 653 655 651 650 655 657 658 660 660 662 664 668 672 673 674 678 682 687 692 696 699 703 706 709 713 718 722 726 729 733 737 740 744 747 751 754 757 761 765 767 770 773 775 777 780 783 786 788 790 791 793 795 796 798 800 802 804 805
751 761 758 747 743 742 738 733 729 727 729 732 734 738 742 742 742 743 735 714 701 701 700 701 701 681 655 645 645 644 645 648 650 649 651 654 655 656 659 662 666 668 671 674 678 684 690 694 698 702 707 711 715 718 722 725 729 733 736 739 743 746 749 753 755 759 763 766 769 772 774 777 779 782 785 787 789 791 792 795 796 798 800 802 804 805
742 755 757 750 744 737 731 729 726 722 722 726 729 730 734 736 737 742 737 714 698 693 686 688 694 675 647 638 638 638 642 644 644 644 645 649 650 651 655 659 661 663 667 672 676 681 686 691 696 701 705 710 714 717 720 724 727 731 734 738 742 744 747 751 755 759 763 765 768 771 773 776 779 782 784 786 788 790 792 794 796 798 800 802 804 806
737 749 754 750 741 731 728 728 725 721 723 728 729 727 728 731 729 729 725 715 711 703 686 687 695 673 644 637 634 633 639 641 642 642 643 647 649 649 654 658 659 662 666 670 675 680 684 690 695 700 704 708 712 716 720 723 726 730 734 737 740 743 746 750 755 759 762 765 767 770 773 775 778 781 783 785 788 790 792 794 796 798 800 802 804 806
737 749 754 751 746 738 734 732 729 726 726 728 726 722 723 725 725 724 718 712 715 706 685 685 691 669 646 643 639 634 639 641 642 642 641 644 649 652 654 656 658 662 666 671 676 680 685 690 694 699 703 707 711 714 718 722 726 729 733 736 739 742 746 750 754 758 761 764 766 769 772 775 778 780 782 785 787 789 792 794 796 798 800 802 804 806
737 748 750 748 747 743 738 733 729 727 725 722 719 717 719 722 724 725 719 712 711 700 681 677 677 662 649 650 645 639 641 641 641 642 641 642 647 651 654 656 658 662 666 671 675 680 685 689 693 698 701 705 709 713 717 721 725 729 732 735 738 741 745 749 753 757 760 763 765 768 771 774 777 779 782 784 787 789 792 794 796 798 800 802 804 806
740 747 744 741 740 737 733 726 720 721 723 720 716 715 717 718 716 715 714 710 705 698 686 677 672 663 658 657 653 648 644 641 642 643 643 645 648 650 652 655 658 661 665 669 674 680 685 689 693 697 700 704 708 712 716 720 723 728 731 735 738 741 745 748 752 756 759 762 764 767 770 773 776 778 781 784 786 789 791 794 796 798 800 802 803 805
739 742 736 735 733 725 721 716 713 716 719 716 714 714 716 715 711 712 713 704 698 700 694 681 674 670 665 662 659 654 647 643 643 644 644 646 649 651 653 655 658 662 666 670 675 680 684 688 692 696 700 704 708 712 716 719 723 726 730 734 738 741 744 747 751 755 758 761 764 767 769 772 775 777 780 783 786 789 791 793 796 798 800 802 804 806
732 732 725 727 726 717 714 712 711 713 712 709 709 710 711 711 709 712 710 699 693 697 692 681 675 672 667 663 659 655 650 644 642 643 644 646 648 650 654 657 661 664 668 672 676 679 683 687 692 696 700 704 708 712 716 719 723 727 730 734 737 740 743 746 750 754 757 760 762 765 769 772 774 777 780 783 786 789 791 793 795 797 799 802 804 806
727 727 720 721 721 715 713 711 709 709 706 702 703 703 702 704 706 707 703 692 686 687 686 685 682 672 664 662 657 654 651 644 640 643 645 647 649 652 656 659 662 666 668 672 676 679 683 686 690 695 699 703 707 711 715 719 722 726 730 733 737 740 743 746 750 753 756 759 761 764 767 770 773 776 779 782 785 788 790 793 795 797 799 802 804 806
724 723 719 720 720 713 709 708 705 702 701 699 699 698 696 699 701 699 693 686 684 684 684 689 688 672 659 658 657 653 649 643 642 644 647 648 649 651 657 661 663 666 669 672 676 679 683 687 691 694 698 702 706 710 714 717 721 725 729 732 736 739 742 746 749 752 755 758 761 763 766 769 772 776 778 781 784 787 790 793 795 797 799 802 804 806
723 723 720 722 721 709 704 707 701 693 692 694 694 693 694 697 697 693 688 685 685 686 682 685 687 673 657 654 655 652 647 646 648 648 649 651 651 651 656 661 664 667 669 673 676 680 684 688 692 695 698 702 705 709 713 716 720 725 728 731 735 738 742 745 748 751 754 757 760 762 765 768 771 775 778 780 783 786 789 792 795 797 799 801 803 805
724 725 724 728 725 709 703 709 700 690 692 695 691 687 690 694 694 691 688 682 680 683 680 679 683 676 662 655 652 650 649 651 654 654 652 653 654 654 655 658 662 665 669 673 676 679 684 687 691 694 698 701 705 708 711 715 719 723 726 730 734 737 741 744 747 751 754 756 759 761 764 767 771 774 777 780 783 786 789 792 794 796 798 800 802 805
724 725 728 733 728 712 707 707 698 694 699 696 686 682 684 688 691 692 688 677 674 677 674 673 675 672 665 658 652 652 656 657 659 659 656 653 654 657 659 659 662 664 667 672 675 678 682 687 691 696 699 702 706 709 713 717 720 724 727 730 734 736 740 744 746 750 753 755 757 760 763 767 770 773 777 780 783 786 788 791 794 796 798 800 802 804
725 727 731 734 729 718 710 704 699 699 699 692 684 679 678 680 684 687 683 674 672 674 674 676 676 669 664 661 656 658 662 662 662 662 659 656 656 658 662 663 665 668 670 672 675 679 683 687 692 697 700 704 708 711 714 718 721 725 728 730 733 736 740 743 746 749 752 754 757 760 763 766 770 773 777 779 782 785 788 790 793 795 797 799 801 803
724 729 730 727 725 719 713 711 710 704 693 686 682 678 677 678 680 684 683 675 671 672 672 674 673 667 663 661 659 660 661 659 661 664 663 661 659 660 665 666 667 670 673 674 676 678 681 685 689 694 699 703 707 711 715 718 722 725 728 730 733 736 740 742 745 748 751 753 756 760 763 766 769 773 776 779 782 785 787 790 792 795 797 799 801 803
719 725 726 722 720 719 720 718 712 702 693 685 681 680 682 683 683 687 686 675 670 670 667 663 664 663 661 661 660 659 657 656 661 667 667 665 662 662 666 668 668 669 672 675 678 679 681 684 688 693 698 702 706 710 714 718 722 724 727 730 733 736 740 742 743 746 750 753 756 759 763 766 769 772 775 778 781 784 787 789 792 794 796 798 800 803
718 719 722 724 721 720 723 719 709 704 700 692 687 687 686 685 685 687 683 674 668 668 663 658 659 658 657 659 661 659 657 659 666 671 671 669 666 664 665 668 669 669 670 673 678 681 683 686 689 693 697 701 706 710 713 717 721 723 726 730 732 735 738 742 743 745 748 753 756 759 762 765 768 772 775 777 780 783 786 789 792 794 796 797 800 802
721 720 722 726 726 722 721 720 714 708 700 695 695 691 684 684 683 680 679 676 669 667 665 659 656 655 653 657 659 658 660 666 672 673 671 670 668 665 665 667 667 668 670 672 676 680 683 685 689 693 696 700 705 709 712 716 719 722 726 729 731 734 737 740 743 745 748 753 756 759 762 766 768 771 774 776 779 783 786 788 791 793 795 797 799 802
725 726 726 727 728 725 723 720 713 704 697 697 698 692 685 683 677 676 685 685 674 671 671 664 657 655 655 657 659 659 662 667 670 670 669 670 670 666 664 665 665 666 670 674 678 682 685 687 690 693 696 699 702 707 711 714 718 722 725 728 731 734 737 740 743 745 749 753 756 759 763 766 768 771 773 776 779 782 785 788 790 793 795 797 799 801
731 730 730 729 727 725 725 721 710 700 699 701 698 691 686 680 674 679 692 691 681 677 675 669 665 661 658 659 661 662 665 667 668 668 669 670 671 669 665 664 664 666 669 672 677 681 685 689 691 693 696 698 701 705 709 713 717 722 725 728 731 734 737 741 743 746 749 754 757 759 763 766 769 771 773 776 779 782 785 787 789 791 794 796 798 800
731 728 728 729 725 721 720 718 708 701 700 699 695 689 682 678 681 689 695 691 686 681 674 670 672 669 662 661 664 666 668 669 668 669 671 672 671 671 669 667 668 670 672 674 677 680 683 687 691 695 697 699 702 705 708 712 717 721 725 728 731 734 738 741 744 746 750 754 757 759 763 766 769 771 773 776 779 782 784 787 789 791 793 795 797 799
730 726 722 721 720 718 716 713 708 704 701 699 695 690 686 687 693 697 696 691 686 683 677 672 674 674 669 666 669 670 668 667 668 669 671 672 672 671 670 670 671 672 674 675 678 680 682 686 690 694 697 700 703 706 709 712 716 721 725 728 731 734 737 740 744 747 750 754 757 760 763 766 768 771 773 775 778 781 783 786 789 791 793 795 797 799
730 726 720 718 717 717 714 710 708 707 704 701 700 698 697 697 696 695 696 692 686 684 683 679 677 677 674 670 671 671 668 667 669 670 670 671 672 672 672 673 674 676 678 680 681 683 685 688 690 695 698 701 704 707 709 712 717 721 725 729 731 734 737 741 744 747 751 754 757 760 763 765 768 770 772 774 777 780 783 786 788 791 792 794 796 798
725 723 722 721 719 716 714 710 707 706 704 702 703 703 700 697 695 694 696 693 686 684 687 686 681 677 674 672 672 672 671 670 670 671 672 673 673 673 674 675 676 678 681 684 686 690 693 692 691 696 700 703 705 709 711 714 718 722 726 729 732 734 737 741 744 747 751 755 758 761 764 766 768 770 772 774 776 779 782 785 787 790 792 793 795 797
721 721 721 720 718 715 713 710 708 707 705 702 702 703 700 697 695 693 693 692 686 685 690 689 682 676 674 673 673 674 675 675 674 675 676 676 676 676 676 677 679 680 681 683 685 690 694 694 693 696 701 704 706 710 713 716 718 722 726 730 733 735 737 741 744 748 752 755 758 761 764 766 769 771 772 774 776 778 781 783 785 788 790 792 794 796
721 719 719 720 721 718 715 712 709 709 708 705 703 702 699 697 695 692 693 691 685 687 692 689 680 676 676 675 676 676 676 677 679 681 682 680 680 680 679 680 683 683 684 685 686 688 691 693 694 697 701 704 707 710 714 718 720 723 727 731 735 736 738 741 745 749 753 755 758 761 763 766 769 771 772 774 776 778 781 783 785 787 789 791 792 794
723 720 721 724 727 724 718 713 710 709 707 706 706 704 701 699 696 693 693 689 683 688 694 686 677 677 678 677 678 678 677 677 680 683 686 685 684 684 684 684 686 686 686 687 688 689 691 693 695 697 700 704 708 711 714 718 722 725 728 731 735 737 739 742 745 749 752 755 757 760 763 765 768 770 772 774 776 778 781 783 785 786 787 788 789 791
724 724 725 727 728 725 719 713 710 708 706 705 706 705 702 700 697 693 693 689 685 692 696 687 678 678 678 678 679 679 680 681 681 683 686 687 686 687 687 687 688 688 688 688 689 690 691 693 696 698 700 704 709 712 715 719 723 726 729 731 735 737 740 743 746 749 753 755 757 759 762 764 767 769 771 774 776 778 780 782 783 785 786 787 788 788
726 725 724 725 726 725 721 717 714 713 711 709 708 706 703 700 696 694 693 691 690 695 698 691 684 682 680 680 680 680 682 685 685 686 687 687 687 688 689 689 690 690 689 689 690 691 692 694 696 699 701 705 709 713 717 721 724 727 730 733 736 738 741 744 747 750 753 755 757 759 761 764 767 769 771 773 775 777 779 781 783 784 785 787 788 789
729 728 725 724 725 724 720 718 716 714 714 712 708 706 704 701 698 697 698 696 694 695 696 693 688 686 685 685 684 684 685 686 687 688 690 691 689 688 689 691 693 692 692 692 693 695 696 697 699 701 703 706 710 714 718 722 725 729 732 734 737 739 741 744 747 751 753 755 757 759 761 763 766 768 771 773 774 776 778 780 782 784 785 786 788 790